Homer, AK

6:19 AM AKST on February 24, 2017 (GMT -0900)
Homer

Weather History for PAHO - August, 2013

Change the Weather History Date:

Saturday, August 10, 2013

  Actual Average Record
Temperature  
Mean Temperature 56 °F -  
Max Temperature 64 °F 61 °F 78 °F (1944)
Min Temperature 48 °F 48 °F 37 °F (1949)
Degree Days  
Heating Degree Days 10    
Growing Degree Days 6 (Base 50)    
Moisture  
Dew Point 47 °F    
Average Humidity 78    
Maximum Humidity 93    
Minimum Humidity 52    
Precipitation  
Precipitation 0.00 in - - ()
Sea Level Pressure  
Sea Level Pressure 29.87 in    
Wind  
Wind Speed 3 mph (SSW)    
Max Wind Speed 12 mph    
Max Gust Speed -    
Visibility 8 miles    
Events Fog    
Averages and records for this station are not official NWS values.
T = Trace of Precipitation, MM = Missing Value Source: NWS Daily Summary

Daily Weather History Graph

Daily Weather History Graph

Search for Another Location

Airport or City:

Trip Planner

Search our weather history database for the weather conditions in past years. The results will help you decide how hot, cold, wet, or windy it might be!

Date:

Astronomy

Aug. 10, 2013 Rise Set
Actual Time 6:11 AM AKDT 10:09 PM AKDT
Civil Twilight 5:18 AM AKDT 11:01 PM AKDT
Nautical Twilight 3:55 AM AKDT 12:22 AM AKDT
Astronomical Twilight Sun does not rise Sun does not rise
Moon 11:25 AM AKDT (8/10) 10:33 PM AKDT (8/10)
Length of Visible Light 17h 43m
Length of Day
15h 58m
Waxing Crescent, 15% of the Moon is Illuminated
Aug 10
Waxing Crescent
Aug 14
First Quarter
Aug 20
Full
Aug 28
Last Quarter
Sep 5
New

Hourly Weather History & Observations

Time (AKDT) Temp. Dew Point Humidity Pressure Visibility Wind Dir Wind Speed Gust Speed Precip Events Conditions
12:53 AM 54.0 °F 46.9 °F 77% 29.78 in 10.0 mi NW 3.5 mph - N/A   Clear
1:53 AM 51.1 °F 46.0 °F 83% 29.79 in 10.0 mi NE 4.6 mph - N/A   Clear
2:53 AM 51.1 °F 46.9 °F 86% 29.80 in 10.0 mi Calm Calm - N/A   Clear
3:53 AM 51.1 °F 46.9 °F 86% 29.80 in 10.0 mi Calm Calm - N/A   Clear
4:53 AM 52.0 °F 46.0 °F 80% 29.81 in 10.0 mi Calm Calm - N/A   Clear
5:53 AM 50.0 °F 45.0 °F 83% 29.81 in 10.0 mi ENE 3.5 mph - N/A   Clear
6:13 AM 48.2 °F 44.6 °F 87% 29.80 in 2.5 mi ENE 3.5 mph - N/A   Partly Cloudy
6:16 AM 48.2 °F 44.6 °F 87% 29.81 in 1.0 mi East 4.6 mph - N/A   Mist
6:23 AM 48.2 °F 46.4 °F 93% 29.81 in 1.8 mi East 3.5 mph - N/A   Scattered Clouds
6:31 AM 48.2 °F 46.4 °F 93% 29.81 in 1.8 mi ENE 4.6 mph - N/A   Mostly Cloudy
6:46 AM 48.2 °F 46.4 °F 93% 29.81 in 0.2 mi NNE 3.5 mph - N/A Fog Fog
6:53 AM 48.9 °F 46.0 °F 90% 29.82 in 1.0 mi NE 3.5 mph - N/A   Mist
7:05 AM 50.0 °F 46.4 °F 87% 29.81 in 0.2 mi NE 3.5 mph - N/A Fog Fog
7:32 AM 51.8 °F 48.2 °F 88% 29.82 in 1.0 mi ESE 3.5 mph - N/A   Overcast
7:37 AM 51.8 °F 48.2 °F 88% 29.82 in 1.0 mi Calm Calm - N/A   Overcast
7:43 AM 51.8 °F 48.2 °F 88% 29.83 in 5.0 mi Calm Calm - N/A   Overcast
7:53 AM 51.1 °F 48.0 °F 89% 29.83 in 9.0 mi Calm Calm - N/A   Mostly Cloudy
8:27 AM 51.8 °F 48.2 °F 88% 29.83 in 10.0 mi Calm Calm - N/A   Mostly Cloudy
8:53 AM 52.0 °F 48.0 °F 86% 29.84 in 10.0 mi Calm Calm - N/A   Overcast
9:18 AM 53.6 °F 48.2 °F 82% 29.84 in 10.0 mi Calm Calm - N/A   Partly Cloudy
9:43 AM 53.6 °F 48.2 °F 82% 29.85 in 10.0 mi South 3.5 mph - N/A   Mostly Cloudy
9:53 AM 55.0 °F 48.9 °F 80% 29.86 in 10.0 mi South 3.5 mph - N/A   Mostly Cloudy
10:15 AM 55.4 °F 48.2 °F 77% 29.85 in 10.0 mi Calm Calm - N/A   Mostly Cloudy
10:53 AM 57.0 °F 48.0 °F 72% 29.87 in 10.0 mi SW 5.8 mph - N/A   Mostly Cloudy
11:53 AM 57.9 °F 48.0 °F 70% 29.89 in 10.0 mi SSW 4.6 mph - N/A   Overcast
12:53 PM 60.1 °F 48.9 °F 67% 29.91 in 10.0 mi SE 5.8 mph - N/A   Mostly Cloudy
1:53 PM 63.0 °F 45.0 °F 52% 29.92 in 10.0 mi WSW 8.1 mph - N/A   Scattered Clouds
2:53 PM 63.0 °F 46.0 °F 54% 29.92 in 10.0 mi WSW 8.1 mph - N/A   Mostly Cloudy
3:53 PM 62.1 °F 46.0 °F 56% 29.94 in 10.0 mi WSW 10.4 mph - N/A   Mostly Cloudy
4:53 PM 62.1 °F 46.0 °F 56% 29.95 in 10.0 mi WSW 11.5 mph - N/A   Mostly Cloudy
5:53 PM 61.0 °F 46.0 °F 58% 29.96 in 10.0 mi WSW 9.2 mph - N/A   Scattered Clouds
6:53 PM 62.1 °F 46.9 °F 58% 29.96 in 10.0 mi WSW 10.4 mph - N/A   Scattered Clouds
7:53 PM 62.1 °F 46.9 °F 58% 29.97 in 10.0 mi WSW 8.1 mph - N/A   Scattered Clouds
8:53 PM 59.0 °F 46.9 °F 64% 29.98 in 10.0 mi SW 3.5 mph - N/A   Mostly Cloudy
9:53 PM 54.0 °F 48.9 °F 83% 30.00 in 10.0 mi SW 4.6 mph - N/A   Clear
10:53 PM 53.1 °F 48.9 °F 86% 30.01 in 10.0 mi Calm Calm - N/A   Partly Cloudy
11:53 PM 53.1 °F 48.0 °F 83% 30.02 in 10.0 mi NE 5.8 mph - N/A   Clear